Notices

What's New in latest Release from April 7th, 2021:

- Updated Glossary, including Speed of Maximum Gust, and Total Hourly Precipitation

- Updated national and regional climate services offices contacts and prices information

- Addition of station inventory lists for 1981-2010, 1971-2000, and 1961-1990 Normals.

If you haven't already, please take our survey and provide feedback about our website: https://eccc.sondage-survey.ca/f/LanguageSelection.aspx?s=442ca660-fcf1-47c0-95a9-59707d6fd709

Hourly Data Report for April 04, 2021

KUGAARUK CLIMATE
NUNAVUT
Current Station Operator: ECCC - MSC

68°32'15.060" N
89°47'47.020" W
15.80 m
2303094
71407
NBB

Download Data

Hourly Data (April 2021)
Hourly Data Report for April 4, 2021
TIME
LST
Temp Definition
°C
Dew Point Definition
°C
Rel Hum Definition
%
Precip. Amount Definition
mm

Wind Dir Definition
10's deg

Wind Spd Definition
km/h
Visibility Definition
km
Stn Press Definition
kPa
Hmdx Definition


Wind Chill Definition


Weather Definition


00:00 -12.1 -14.0 86 0.0 9 24   101.93   -21 LegendNANA
01:00 -12.7 -14.7 86 0.0 8 23   101.91   -22 LegendNANA
02:00 -12.9 -14.9 85 0.0 9 26   101.91   -23 LegendNANA
03:00 -13.5 -15.6 85 0.0 9 31   101.91   -24 LegendNANA
04:00 -14.1 -16.1 84 0.0 10 33   101.86   -25 LegendNANA
05:00 -14.7 -16.8 84 0.0 10 36   101.84   -27 LegendNANA
06:00 -15.1 -17.3 83 0.0 9 37   101.85   -27 LegendNANA
07:00 -15.0 -17.3 82 0.0 11 32   101.86   -26 LegendNANA
08:00 -15.1 -17.7 81 0.0 9 28   101.86   -26 LegendNANA
09:00 -15.2 -18.0 79 0.0 9 30   101.88   -26 LegendNANA
10:00 -15.1 -18.1 78 0.0 8 28   101.85   -26 LegendNANA
11:00 -14.9 -17.8 79 0.0 9 34   101.76   -27 LegendNANA
12:00 -14.7 -17.6 78 0.0 9 36   101.69   -27 LegendNANA
13:00 -14.7 -17.5 79 0.0 8 35   101.68   -26 LegendNANA
14:00 -14.8 -17.4 80 0.0 8 33   101.69   -26 LegendNANA
15:00 -14.6 -17.1 81 0.0 9 29   101.67   -25 LegendNANA
16:00 -14.2 -16.6 82 0.0 10 24   101.65   -24 LegendNANA
17:00 -15.0 -17.3 83 0.0 8 18   101.66   -24 LegendNANA
18:00 -15.8 -18.0 83 0.0 9 21   101.61   -25 LegendNANA
19:00 -16.9 -19.2 82 0.0 11 13   101.58   -25 LegendNANA
20:00 -18.8 -21.1 82 0.0 9 11   101.53   -26 LegendNANA
21:00 -19.6 -21.8 83 0.0 9 16   101.47   -29 LegendNANA
22:00 -17.9 -20.0 83 0.0 10 22   101.44   -28 LegendNANA
23:00 -17.7 -19.7 84 0.0 1 13   101.44   -26 LegendNANA

Notes on Data Quality.

Legend

  • E = Estimated
  • M = Missing
  • NA = Not Available*
  • [empty] = Indicates an unobserved value
Date modified: